CW5282 Weather Reports


Display with metric or nautical units.
time (UTC)temp
F
wind
direction
speed
MPH
gust
MPH
rain 1hr
in
rain 24hr
in
rain mn
in
humidity
%
barometer
mb
20210515111844 47 259 0.0 0.0 0.00 0.00 0.00 65 1021.5
20210515111644 47 260 0.0 0.0 0.00 0.00 0.00 66 1021.5
20210515111439 46 261 0.0 0.0 0.00 0.00 0.00 66 1021.5
20210515111239 46 262 0.0 0.0 0.00 0.00 0.00 67 1021.5
20210515111040 46 262 0.0 0.0 0.00 0.00 0.00 67 1021.5
20210515110830 45 261 0.0 0.0 0.00 0.00 0.00 68 1021.4
20210515110626 45 265 0.0 0.0 0.00 0.00 0.00 68 1021.4
20210515110425 45 267 0.0 1.0 0.00 0.00 0.00 68 1021.4
20210515110221 44 262 0.0 0.0 0.00 0.00 0.00 68 1021.4
20210515110016 44 277 0.0 0.0 0.00 0.00 0.00 69 1021.4
20210515105812 44 278 0.0 0.0 0.00 0.00 0.00 69 1021.4
20210515105611 43 277 0.0 0.0 0.00 0.00 0.00 70 1021.4
20210515105409 43 281 0.0 0.0 0.00 0.00 0.00 70 1021.2
20210515105207 43 214 0.0 0.0 0.00 0.00 0.00 72 1021.2
20210515105001 42 235 0.0 0.0 0.00 0.00 0.00 72 1021.2
20210515104754 42 235 0.0 0.0 0.00 0.00 0.00 72 1021.2
20210515104547 42 236 0.0 0.0 0.00 0.00 0.00 72 1021.2
20210515104346 42 238 0.0 0.0 0.00 0.00 0.00 72 1021.2
20210515104145 41 238 0.0 0.0 0.00 0.00 0.00 73 1021.2
20210515103944 41 238 0.0 0.0 0.00 0.00 0.00 74 1021.3
20210515103738 41 238 0.0 0.0 0.00 0.00 0.00 74 1021.3
20210515103535 41 237 0.0 0.0 0.00 0.00 0.00 75 1021.3
20210515103325 40 243 0.0 0.0 0.00 0.00 0.00 75 1021.3
20210515103119 40 243 0.0 0.0 0.00 0.00 0.00 75 1021.3
20210515102915 40 245 0.0 0.0 0.00 0.00 0.00 75 1021.3
20210515102707 40 245 0.0 0.0 0.00 0.00 0.00 76 1021.3
20210515102459 40 247 0.0 0.0 0.00 0.00 0.00 76 1021.2
20210515102252 39 250 0.0 0.0 0.00 0.00 0.00 77 1021.2
20210515102050 39 267 0.0 0.0 0.00 0.00 0.00 77 1021.2
20210515101850 39 264 0.0 0.0 0.00 0.00 0.00 78 1021.2
20210515101639 39 238 0.0 0.0 0.00 0.00 0.00 78 1021.2
20210515101435 39 239 0.0 0.0 0.00 0.00 0.00 78 1021.2
20210515101236 38 272 0.0 0.0 0.00 0.00 0.00 79 1021.2
20210515101030 38 273 0.0 0.0 0.00 0.00 0.00 79 1021.2
20210515100820 38 258 0.0 0.0 0.00 0.00 0.00 79 1021.2
20210515100617 38 258 0.0 0.0 0.00 0.00 0.00 79 1021.2
20210515100415 38 258 0.0 0.0 0.00 0.00 0.00 79 1021.2
20210515100206 38 271 0.0 0.0 0.00 0.00 0.00 79 1021.2
20210515095958 37 271 0.0 0.0 0.00 0.00 0.00 80 1021.2
20210515095753 37 272 0.0 0.0 0.00 0.00 0.00 80 1021.2
20210515095550 37 272 0.0 0.0 0.00 0.00 0.00 80 1021.2
20210515095339 37 272 0.0 0.0 0.00 0.00 0.00 80 1021.1
20210515095139 37 274 0.0 0.0 0.00 0.00 0.00 79 1021.1
20210515094938 37 274 0.0 0.0 0.00 0.00 0.00 79 1021.1
20210515094734 37 274 0.0 0.0 0.00 0.00 0.00 79 1021.1
20210515094529 37 274 0.0 0.0 0.00 0.00 0.00 79 1021.1
20210515094325 37 274 0.0 0.0 0.00 0.00 0.00 79 1021.1
20210515094123 37 274 0.0 0.0 0.00 0.00 0.00 79 1021.1
20210515093920 37 274 0.0 0.0 0.00 0.00 0.00 79 1021.1
20210515093716 37 274 0.0 0.0 0.00 0.00 0.00 79 1021.1
20210515093508 37 274 0.0 0.0 0.00 0.00 0.00 79 1021.1
20210515093309 37 274 0.0 0.0 0.00 0.00 0.00 78 1021.1
20210515093108 37 274 0.0 0.0 0.00 0.00 0.00 79 1021.1
20210515092859 37 274 0.0 0.0 0.00 0.00 0.00 79 1021.1
20210515092658 37 274 0.0 0.0 0.00 0.00 0.00 79 1021.1
20210515092450 37 274 0.0 0.0 0.00 0.00 0.00 79 1020.9
20210515092241 37 274 0.0 0.0 0.00 0.00 0.00 79 1020.9
20210515092036 37 274 0.0 0.0 0.00 0.00 0.00 79 1020.9
20210515091835 37 274 0.0 0.0 0.00 0.00 0.00 79 1020.9
20210515091627 36 274 0.0 0.0 0.00 0.00 0.00 80 1020.9
20210515091426 36 274 0.0 0.0 0.00 0.00 0.00 80 1020.9
20210515091226 36 274 0.0 0.0 0.00 0.00 0.00 80 1020.9
20210515091018 36 274 0.0 0.0 0.00 0.00 0.00 80 1020.7
20210515090816 36 274 0.0 0.0 0.00 0.00 0.00 80 1020.7
20210515090609 36 274 0.0 0.0 0.00 0.00 0.00 80 1020.7
20210515090406 36 274 0.0 0.0 0.00 0.00 0.00 80 1020.7
20210515090204 36 274 0.0 0.0 0.00 0.00 0.00 79 1020.7
20210515085953 36 274 0.0 0.0 0.00 0.00 0.00 79 1020.7
20210515085744 36 274 0.0 0.0 0.00 0.00 0.00 79 1020.7
20210515085542 36 274 0.0 0.0 0.00 0.00 0.00 80 1020.7
20210515085343 36 275 0.0 0.0 0.00 0.00 0.00 80 1020.5
20210515085139 36 276 0.0 0.0 0.00 0.00 0.00 80 1020.5
20210515084934 36 292 0.0 0.0 0.00 0.00 0.00 80 1020.5
20210515084727 36 281 0.0 1.0 0.00 0.00 0.00 80 1020.5
20210515084520 36 271 0.0 0.0 0.00 0.00 0.00 80 1020.5
20210515084310 36 273 0.0 0.0 0.00 0.00 0.00 80 1020.5
20210515084102 36 257 0.0 0.0 0.00 0.00 0.00 80 1020.5
20210515083853 36 255 0.0 0.0 0.00 0.00 0.00 80 1020.3
20210515083653 36 255 0.0 0.0 0.00 0.00 0.00 80 1020.3
20210515083445 36 255 0.0 0.0 0.00 0.00 0.00 79 1020.3
20210515083242 36 255 0.0 0.0 0.00 0.00 0.00 79 1020.3
20210515083032 36 255 0.0 0.0 0.00 0.00 0.00 79 1020.3
20210515082822 36 255 0.0 0.0 0.00 0.00 0.00 79 1020.3
20210515082615 37 255 0.0 0.0 0.00 0.00 0.00 79 1020.3
20210515082416 37 255 0.0 0.0 0.00 0.00 0.00 79 1020.2
20210515082208 37 253 0.0 0.0 0.00 0.00 0.00 78 1020.2
20210515082006 37 253 0.0 0.0 0.00 0.00 0.00 78 1020.2
20210515081803 37 254 0.0 0.0 0.00 0.00 0.00 78 1020.2
20210515081556 37 252 0.0 0.0 0.00 0.00 0.00 78 1020.2
20210515081353 37 251 0.0 0.0 0.00 0.00 0.00 78 1020.2
20210515081152 37 251 0.0 0.0 0.00 0.00 0.00 78 1020.2
20210515080943 37 257 0.0 0.0 0.00 0.00 0.00 77 1020.2
20210515080743 37 262 0.0 0.0 0.00 0.00 0.00 77 1020.2
20210515080533 37 255 0.0 0.0 0.00 0.00 0.00 77 1020.2
20210515080324 38 252 0.0 0.0 0.00 0.00 0.00 76 1020.2
20210515080117 38 252 0.0 0.0 0.00 0.00 0.00 76 1020.2
20210515075910 38 256 0.0 0.0 0.00 0.00 0.00 76 1020.2
20210515075706 38 257 0.0 0.0 0.00 0.00 0.00 76 1020.2
20210515075507 38 250 0.0 0.0 0.00 0.00 0.00 76 1020.1
20210515075304 38 293 0.0 0.0 0.00 0.00 0.00 76 1020.1
20210515075051 38 293 0.0 0.0 0.00 0.00 0.00 76 1020.1
20210515074846 38 293 0.0 0.0 0.00 0.00 0.00 76 1020.1
20210515074639 38 293 0.0 1.0 0.00 0.00 0.00 76 1020.1
20210515074430 38 295 0.0 0.0 0.00 0.00 0.00 76 1020.1
20210515074224 38 296 0.0 1.0 0.00 0.00 0.00 76 1020.1
20210515074022 38 297 0.0 0.0 0.00 0.00 0.00 76 1019.9
20210515073818 38 297 0.0 0.0 0.00 0.00 0.00 76 1019.9
20210515073618 38 297 0.0 0.0 0.00 0.00 0.00 76 1019.9
20210515073413 38 297 0.0 0.0 0.00 0.00 0.00 76 1019.9
20210515073203 38 297 0.0 0.0 0.00 0.00 0.00 76 1019.9
20210515072958 38 297 0.0 0.0 0.00 0.00 0.00 76 1019.9
20210515072756 38 307 0.0 0.0 0.00 0.00 0.00 76 1019.9
20210515072552 38 306 0.0 0.0 0.00 0.00 0.00 76 1019.9
20210515072351 38 272 0.0 0.0 0.00 0.00 0.00 75 1019.7
20210515072152 38 275 0.0 0.0 0.00 0.00 0.00 75 1019.7
20210515071942 38 285 0.0 0.0 0.00 0.00 0.00 75 1019.7
20210515071735 39 270 0.0 1.0 0.00 0.00 0.00 74 1019.7
20210515071525 39 269 0.0 0.0 0.00 0.00 0.00 74 1019.7
20210515071316 39 275 0.0 0.0 0.00 0.00 0.00 74 1019.7
20210515071116 39 278 0.0 0.0 0.00 0.00 0.00 74 1019.7
20210515070909 39 293 0.0 0.0 0.00 0.00 0.00 73 1019.7
20210515070709 39 297 0.0 0.0 0.00 0.00 0.00 73 1019.7
20210515070500 39 313 0.0 0.0 0.00 0.00 0.00 73 1019.7
20210515070256 40 297 0.0 0.0 0.00 0.00 0.00 73 1019.7
20210515070054 40 302 0.0 0.0 0.00 0.00 0.00 73 1019.7
20210515065848 39 295 0.0 0.0 0.00 0.00 0.00 73 1019.7
20210515065642 39 307 0.0 0.0 0.00 0.00 0.00 74 1019.7
20210515065438 39 288 0.0 0.0 0.00 0.00 0.00 74 1019.6
20210515065238 39 307 0.0 1.0 0.00 0.00 0.00 75 1019.6
20210515065031 39 285 0.0 0.0 0.00 0.00 0.00 75 1019.6
20210515064832 39 273 0.0 0.0 0.00 0.00 0.00 74 1019.6
20210515064630 39 276 0.0 0.0 0.00 0.00 0.00 74 1019.6
20210515064430 39 270 0.0 0.0 0.00 0.00 0.00 73 1019.6
20210515064230 39 274 0.0 0.0 0.00 0.00 0.00 72 1019.6
20210515064030 40 264 0.0 0.0 0.00 0.00 0.00 71 1019.5
20210515063821 40 276 0.0 0.0 0.00 0.00 0.00 71 1019.5
20210515063616 40 296 0.0 0.0 0.00 0.00 0.00 71 1019.5
20210515063410 40 294 0.0 0.0 0.00 0.00 0.00 71 1019.5
20210515063207 40 301 0.0 0.0 0.00 0.00 0.00 71 1019.5
20210515063007 40 319 0.0 0.0 0.00 0.00 0.00 71 1019.5
20210515062804 40 293 0.0 0.0 0.00 0.00 0.00 72 1019.5
20210515062604 40 311 0.0 0.0 0.00 0.00 0.00 73 1019.5
20210515062400 39 303 0.0 0.0 0.00 0.00 0.00 74 1019.4
20210515062157 39 307 0.0 0.0 0.00 0.00 0.00 74 1019.4
20210515061955 39 304 0.0 0.0 0.00 0.00 0.00 75 1019.4
20210515061747 39 304 0.0 3.0 0.00 0.00 0.00 76 1019.4
20210515061544 38 287 0.0 0.0 0.00 0.00 0.00 76 1019.4
20210515061345 38 287 0.0 0.0 0.00 0.00 0.00 76 1019.4
20210515061138 38 288 0.0 0.0 0.00 0.00 0.00 76 1019.4
20210515060931 38 266 0.0 0.0 0.00 0.00 0.00 76 1019.4
20210515060725 38 276 0.0 0.0 0.00 0.00 0.00 76 1019.4
20210515060523 38 286 0.0 0.0 0.00 0.00 0.00 77 1019.4
20210515060318 38 290 0.0 0.0 0.00 0.00 0.00 77 1019.4
20210515060109 38 266 0.0 0.0 0.00 0.00 0.00 77 1019.4
20210515055909 38 285 0.0 0.0 0.00 0.00 0.00 77 1019.4
20210515055701 38 281 0.0 0.0 0.00 0.00 0.00 77 1019.4
20210515055457 38 291 0.0 0.0 0.00 0.00 0.00 77 1019.3
20210515055253 38 295 0.0 0.0 0.00 0.00 0.00 77 1019.3
20210515055043 38 274 0.0 1.0 0.00 0.00 0.00 77 1019.3
20210515054843 38 290 0.0 0.0 0.00 0.00 0.00 78 1019.3
20210515054636 38 276 0.0 0.0 0.00 0.00 0.00 78 1019.3
20210515054428 38 262 0.0 0.0 0.00 0.00 0.00 78 1019.3
20210515054223 38 290 0.0 0.0 0.00 0.00 0.00 78 1019.3
20210515054019 38 277 0.0 0.0 0.00 0.00 0.00 78 1019.3
20210515053816 38 278 0.0 0.0 0.00 0.00 0.00 78 1019.3
20210515053606 38 278 0.0 1.0 0.00 0.00 0.00 78 1019.3
20210515053402 38 281 0.0 1.0 0.00 0.00 0.00 78 1019.3
20210515053155 38 284 0.0 5.0 0.00 0.00 0.00 78 1019.3
20210515052947 38 297 0.0 0.0 0.00 0.00 0.00 78 1019.3
20210515052737 38 276 0.0 1.0 0.00 0.00 0.00 78 1019.3
20210515052528 38 277 0.0 5.0 0.00 0.00 0.00 79 1019.3
20210515052328 38 257 0.0 0.0 0.00 0.00 0.00 79 1019.3
20210515052124 38 276 0.0 2.0 0.00 0.00 0.00 79 1019.3
20210515051915 38 276 0.0 0.0 0.00 0.00 0.00 79 1019.3
20210515051712 38 265 0.0 0.0 0.00 0.00 0.00 79 1019.3
20210515051511 38 274 0.0 0.0 0.00 0.00 0.00 79 1019.3
20210515051305 38 266 0.0 0.0 0.00 0.00 0.00 79 1019.3
20210515051059 38 266 0.0 0.0 0.00 0.00 0.00 80 1019.3
20210515050855 38 276 0.0 0.0 0.00 0.00 0.00 80 1019.4
20210515050651 38 274 0.0 0.0 0.00 0.00 0.00 79 1019.4
20210515050440 38 257 0.0 0.0 0.00 0.00 0.00 80 1019.4
20210515050238 38 283 0.0 0.0 0.00 0.00 0.00 80 1019.4
20210515050030 38 277 0.0 0.0 0.00 0.00 0.00 80 1019.4
20210515045831 38 266 0.0 0.0 0.00 0.00 0.00 80 1019.4
20210515045629 38 266 0.0 0.0 0.00 0.00 0.00 80 1019.4
20210515045420 38 270 0.0 0.0 0.00 0.00 0.00 80 1019.4
20210515045219 38 269 0.0 0.0 0.00 0.00 0.00 80 1019.4
20210515045015 38 276 0.0 0.0 0.00 0.00 0.00 80 1019.4
20210515044811 38 283 0.0 0.0 0.00 0.00 0.00 81 1019.4
20210515044607 38 288 0.0 0.0 0.00 0.00 0.00 81 1019.4
20210515044407 38 279 0.0 0.0 0.00 0.00 0.00 81 1019.4
20210515044200 38 292 0.0 0.0 0.00 0.00 0.00 81 1019.4
20210515043955 38 254 0.0 0.0 0.00 0.00 0.00 81 1019.3
20210515043747 38 270 0.0 0.0 0.00 0.00 0.00 81 1019.3
20210515043540 38 275 0.0 1.0 0.00 0.00 0.00 81 1019.3
20210515043337 38 264 0.0 0.0 0.00 0.00 0.00 81 1019.3
20210515043135 38 278 0.0 0.0 0.00 0.00 0.00 81 1019.3
20210515042927 38 267 0.0 0.0 0.00 0.00 0.00 81 1019.3
20210515042717 38 285 0.0 4.0 0.00 0.00 0.00 81 1019.3
20210515042516 38 290 0.0 0.0 0.00 0.00 0.00 81 1019.4
20210515042309 39 276 0.0 0.0 0.00 0.00 0.00 80 1019.4
20210515042108 39 266 0.0 1.0 0.00 0.00 0.00 80 1019.4
20210515041904 39 285 0.0 0.0 0.00 0.00 0.00 80 1019.4
20210515041656 39 283 0.0 1.0 0.00 0.00 0.00 79 1019.4
20210515041450 39 257 0.0 0.0 0.00 0.00 0.00 79 1019.4
20210515041243 39 300 0.0 0.0 0.00 0.00 0.00 79 1019.4
20210515041041 39 286 0.0 0.0 0.00 0.00 0.00 79 1019.4
20210515040834 40 286 0.0 0.0 0.00 0.00 0.00 78 1019.2
20210515040630 40 281 0.0 0.0 0.00 0.00 0.00 78 1019.2
20210515040431 40 270 0.0 0.0 0.00 0.00 0.00 77 1019.2
20210515040230 40 278 0.0 0.0 0.00 0.00 0.00 77 1019.2
20210515040031 40 285 0.0 0.0 0.00 0.00 0.00 77 1019.2
20210515035825 40 284 0.0 0.0 0.00 0.00 0.00 77 1019.2
20210515035623 41 290 0.0 0.0 0.00 0.00 0.00 77 1019.2
20210515035420 41 287 0.0 0.0 0.00 0.00 0.00 76 1019.2
20210515035211 41 278 0.0 0.0 0.00 0.00 0.00 77 1019.2
20210515035005 41 285 0.0 0.0 0.00 0.00 0.00 76 1019.2
20210515034759 41 292 0.0 0.0 0.00 0.00 0.00 77 1019.2
20210515034551 41 293 0.0 0.0 0.00 0.00 0.00 77 1019.2
20210515034350 41 304 0.0 0.0 0.00 0.00 0.00 77 1019.2
20210515034142 41 299 0.0 0.0 0.00 0.00 0.00 78 1019.2
20210515033938 41 276 0.0 0.0 0.00 0.00 0.00 79 1019.2
20210515033735 40 317 0.0 0.0 0.00 0.00 0.00 80 1019.2
20210515033529 40 305 0.0 0.0 0.00 0.00 0.00 82 1019.2
20210515033327 40 295 0.0 4.0 0.00 0.00 0.00 82 1019.2
20210515033118 40 281 0.0 0.0 0.00 0.00 0.00 83 1019.2
20210515032918 40 296 0.0 0.0 0.00 0.00 0.00 83 1019.2
20210515032710 40 306 0.0 1.0 0.00 0.00 0.00 83 1019.2
20210515032505 40 295 0.0 0.0 0.00 0.00 0.00 83 1019.2
20210515032305 40 290 0.0 0.0 0.00 0.00 0.00 83 1019.2
20210515032102 40 276 0.0 0.0 0.00 0.00 0.00 84 1019.2
20210515031900 40 321 0.0 1.0 0.00 0.00 0.00 83 1019.2
20210515031651 40 313 0.0 0.0 0.00 0.00 0.00 84 1019.2
20210515031452 40 296 0.0 0.0 0.00 0.00 0.00 84 1019.2
20210515031245 40 296 0.0 0.0 0.00 0.00 0.00 84 1019.2
20210515031038 40 294 0.0 0.0 0.00 0.00 0.00 84 1019.2
20210515030828 40 296 0.0 0.0 0.00 0.00 0.00 84 1019.2
20210515030621 40 297 0.0 0.0 0.00 0.00 0.00 84 1019.2
20210515030413 40 297 0.0 0.0 0.00 0.00 0.00 84 1019.2
20210515030213 40 297 0.0 0.0 0.00 0.00 0.00 84 1019.2
20210515030011 40 318 0.0 0.0 0.00 0.00 0.00 84 1019.2
20210515025808 40 304 0.0 0.0 0.00 0.00 0.00 84 1019.2
20210515025605 40 308 0.0 0.0 0.00 0.00 0.00 84 1019.2
20210515025359 40 310 0.0 0.0 0.00 0.00 0.00 84 1019.2
20210515025157 40 302 0.0 0.0 0.00 0.00 0.00 84 1019.2
20210515024947 40 317 0.0 0.0 0.00 0.00 0.00 84 1019.2
20210515024742 40 307 0.0 0.0 0.00 0.00 0.00 84 1019.2
20210515024542 40 315 0.0 0.0 0.00 0.00 0.00 84 1019.2
20210515024336 40 313 0.0 0.0 0.00 0.00 0.00 84 1019.2
20210515024134 40 311 0.0 0.0 0.00 0.00 0.00 84 1019.2
20210515023927 40 324 0.0 0.0 0.00 0.00 0.00 84 1019.2
20210515023728 40 311 0.0 0.0 0.00 0.00 0.00 84 1019.2
20210515023518 40 328 0.0 0.0 0.00 0.00 0.00 84 1019.2
20210515023309 40 317 0.0 0.0 0.00 0.00 0.00 85 1019.2
20210515023109 40 330 0.0 0.0 0.00 0.00 0.00 85 1019.2
20210515022858 40 322 0.0 0.0 0.00 0.00 0.00 85 1019.2
20210515022651 40 321 0.0 0.0 0.00 0.00 0.00 86 1019.2
20210515022441 40 319 0.0 0.0 0.00 0.00 0.00 86 1019.1
20210515022231 39 325 0.0 0.0 0.00 0.00 0.00 86 1019.1
20210515022022 39 304 0.0 0.0 0.00 0.00 0.00 85 1019.1
20210515021821 39 301 0.0 4.0 0.00 0.00 0.00 84 1019.1
20210515021620 40 307 0.0 4.0 0.00 0.00 0.00 83 1019.1
20210515021410 40 317 0.0 0.0 0.00 0.00 0.00 83 1019.1
20210515021210 40 310 0.0 0.0 0.00 0.00 0.00 82 1019.1
20210515021005 41 297 0.0 0.0 0.00 0.00 0.00 82 1019.1
20210515020757 41 300 0.0 0.0 0.00 0.00 0.00 81 1019.1
20210515020555 41 307 0.0 0.0 0.00 0.00 0.00 81 1019.1
20210515020356 42 304 0.0 0.0 0.00 0.00 0.00 80 1019.1
20210515020155 42 302 0.0 0.0 0.00 0.00 0.00 80 1019.1
20210515015945 42 316 0.0 0.0 0.00 0.00 0.00 79 1019.1
20210515015744 42 285 0.0 0.0 0.00 0.00 0.00 78 1019.1
20210515015534 43 284 0.0 0.0 0.00 0.00 0.00 78 1019.1
20210515015333 43 319 0.0 0.0 0.00 0.00 0.00 77 1019.1
20210515015131 43 294 0.0 0.0 0.00 0.00 0.00 78 1019.1
20210515014931 43 298 0.0 0.0 0.00 0.00 0.00 77 1019.1
20210515014729 43 308 0.0 0.0 0.00 0.00 0.00 77 1019.1
20210515014529 43 318 0.0 0.0 0.00 0.00 0.00 77 1019.1
20210515014322 43 315 0.0 0.0 0.00 0.00 0.00 77 1019.1
20210515014115 43 309 0.0 0.0 0.00 0.00 0.00 77 1019.1
20210515013913 43 307 0.0 0.0 0.00 0.00 0.00 77 1019.1
20210515013709 43 302 0.0 0.0 0.00 0.00 0.00 77 1019.1
20210515013508 43 304 0.0 0.0 0.00 0.00 0.00 78 1019.1
20210515013305 43 299 0.0 0.0 0.00 0.00 0.00 78 1019.1
20210515013056 43 302 0.0 0.0 0.00 0.00 0.00 78 1019.1
20210515012852 43 319 0.0 2.0 0.00 0.00 0.00 78 1019.1
20210515012650 43 306 0.0 0.0 0.00 0.00 0.00 78 1019.1
20210515012448 43 306 0.0 0.0 0.00 0.00 0.00 78 1019.1
20210515012245 43 304 0.0 0.0 0.00 0.00 0.00 78 1019.1
20210515012035 43 302 0.0 0.0 0.00 0.00 0.00 79 1019.1
20210515011824 43 292 0.0 0.0 0.00 0.00 0.00 79 1019.1
20210515011622 43 297 0.0 0.0 0.00 0.00 0.00 79 1019.1
20210515011419 43 302 0.0 0.0 0.00 0.00 0.00 79 1019.1
20210515011212 43 313 0.0 1.0 0.00 0.00 0.00 78 1019.1
20210515011005 43 333 0.0 0.0 0.00 0.00 0.00 78 1019.1
20210515010801 43 283 0.0 0.0 0.00 0.00 0.00 78 1019.1
20210515010553 43 301 0.0 3.0 0.00 0.00 0.00 78 1019.1
20210515010351 43 319 0.0 0.0 0.00 0.00 0.00 78 1019.1
20210515010146 43 301 0.0 4.0 0.00 0.00 0.00 77 1019.1
20210515005942 43 279 0.0 0.0 0.00 0.00 0.00 77 1019.1
20210515005740 43 306 0.0 0.0 0.00 0.00 0.00 77 1019.1
20210515005530 44 314 0.0 2.0 0.00 0.00 0.00 76 1019.1
20210515005331 44 307 0.0 0.0 0.00 0.00 0.00 76 1019.1
20210515005129 44 315 0.0 0.0 0.00 0.00 0.00 76 1019.1
20210515004918 44 285 0.0 0.0 0.00 0.00 0.00 75 1019.1
20210515004711 44 316 0.0 0.0 0.00 0.00 0.00 75 1019.1
20210515004505 44 301 0.0 0.0 0.00 0.00 0.00 75 1019.1
20210515004256 45 309 0.0 0.0 0.00 0.00 0.00 74 1019.1
20210515004056 45 281 0.0 0.0 0.00 0.00 0.00 74 1019.1
20210515003847 45 280 0.0 0.0 0.00 0.00 0.00 73 1018.9
20210515003641 45 280 0.0 0.0 0.00 0.00 0.00 73 1018.9
20210515003433 45 280 0.0 0.0 0.00 0.00 0.00 72 1018.9
20210515003233 45 280 0.0 0.0 0.00 0.00 0.00 72 1018.9
20210515003031 45 280 0.0 0.0 0.00 0.00 0.00 72 1018.9
20210515002830 46 280 0.0 0.0 0.00 0.00 0.00 71 1018.9
20210515002620 46 280 0.0 0.0 0.00 0.00 0.00 71 1018.9
20210515002413 46 280 0.0 0.0 0.00 0.00 0.00 70 1018.6
20210515002206 46 281 0.0 0.0 0.00 0.00 0.00 70 1018.6
20210515001957 46 281 0.0 0.0 0.00 0.00 0.00 69 1018.6
20210515001747 46 281 0.0 0.0 0.00 0.00 0.00 69 1018.6
20210515001543 47 281 0.0 0.0 0.00 0.00 0.00 68 1018.6
20210515001340 47 281 0.0 0.0 0.00 0.00 0.00 68 1018.6
20210515001138 47 281 0.0 0.0 0.00 0.00 0.00 67 1018.6
20210515000932 47 281 0.0 0.0 0.00 0.00 0.00 67 1018.5
20210515000731 47 281 0.0 0.0 0.00 0.00 0.00 67 1018.5
20210515000522 47 281 0.0 0.0 0.00 0.00 0.00 66 1018.5
20210515000317 47 281 0.0 0.0 0.00 0.00 0.00 65 1018.5
20210515000109 47 281 0.0 0.0 0.00 0.00 0.00 65 1018.5
20210514235906 47 281 0.0 0.0 0.00 0.00 0.00 65 1018.5
20210514235657 48 281 0.0 0.0 0.00 0.00 0.00 65 1018.5
20210514235457 48 281 0.0 0.0 0.00 0.00 0.00 66 1018.3
20210514235253 48 281 0.0 0.0 0.00 0.00 0.00 65 1018.3
20210514235049 48 281 0.0 0.0 0.00 0.00 0.00 66 1018.3
20210514234840 48 281 0.0 0.0 0.00 0.00 0.00 65 1018.3
20210514234636 48 281 0.0 0.0 0.00 0.00 0.00 65 1018.3
20210514234433 48 281 0.0 0.0 0.00 0.00 0.00 65 1018.3
20210514234234 48 281 0.0 0.0 0.00 0.00 0.00 64 1018.3
20210514234030 48 281 0.0 0.0 0.00 0.00 0.00 64 1018.1
20210514233829 49 281 0.0 0.0 0.00 0.00 0.00 64 1018.1
20210514233621 49 282 0.0 0.0 0.00 0.00 0.00 64 1018.1
20210514233412 49 282 0.0 0.0 0.00 0.00 0.00 64 1018.1
20210514233211 49 282 0.0 0.0 0.00 0.00 0.00 64 1018.1
20210514233008 49 282 0.0 0.0 0.00 0.00 0.00 63 1018.1
20210514232807 49 282 0.0 0.0 0.00 0.00 0.00 63 1018.1
20210514232603 49 290 0.0 0.0 0.00 0.00 0.00 63 1018.1
20210514232356 49 281 0.0 0.0 0.00 0.00 0.00 64 1018.1
20210514232149 49 282 0.0 0.0 0.00 0.00 0.00 64 1018.1
20210514231945 49 282 0.0 0.0 0.00 0.00 0.00 64 1018.1
20210514231734 49 282 0.0 0.0 0.00 0.00 0.00 64 1018.1
20210514231530 49 283 0.0 0.0 0.00 0.00 0.00 64 1018.1
20210514231327 49 282 0.0 0.0 0.00 0.00 0.00 65 1018.1
20210514231127 49 282 0.0 0.0 0.00 0.00 0.00 65 1018.1
20210514230916 49 282 0.0 0.0 0.00 0.00 0.00 66 1017.9
20210514230709 49 281 0.0 0.0 0.00 0.00 0.00 68 1017.9
20210514230503 49 273 0.0 0.0 0.00 0.00 0.00 70 1017.9
20210514230302 49 250 0.0 0.0 0.00 0.00 0.00 71 1017.9
20210514230103 49 250 0.0 0.0 0.00 0.00 0.00 70 1017.9
20210514225901 48 250 0.0 0.0 0.00 0.00 0.00 70 1017.9
20210514225653 48 246 0.0 0.0 0.00 0.00 0.00 69 1017.9
20210514225448 48 233 0.0 0.0 0.00 0.00 0.00 69 1017.8
20210514225244 48 229 0.0 0.0 0.00 0.00 0.00 70 1017.8
20210514225040 48 229 0.0 0.0 0.00 0.00 0.00 71 1017.8
20210514224832 48 229 0.0 0.0 0.00 0.00 0.00 70 1017.8
20210514224628 48 229 0.0 0.0 0.00 0.00 0.00 70 1017.8
20210514224423 48 231 0.0 0.0 0.00 0.00 0.00 70 1017.8
20210514224217 48 231 0.0 0.0 0.00 0.00 0.00 70 1017.8
20210514224012 48 229 0.0 0.0 0.00 0.00 0.00 70 1017.6
20210514223802 48 229 0.0 0.0 0.00 0.00 0.00 71 1017.6
20210514223558 48 206 0.0 0.0 0.00 0.00 0.00 72 1017.6
20210514223359 48 206 0.0 0.0 0.00 0.00 0.00 71 1017.6
20210514223200 48 206 0.0 0.0 0.00 0.00 0.00 72 1017.6
20210514222950 48 206 0.0 0.0 0.00 0.00 0.00 72 1017.6
20210514222749 48 206 0.0 0.0 0.00 0.00 0.00 72 1017.6
20210514222542 48 206 0.0 0.0 0.00 0.00 0.00 72 1017.6
20210514222341 48 206 0.0 0.0 0.00 0.00 0.00 72 1017.5
20210514222135 48 206 0.0 0.0 0.00 0.00 0.00 72 1017.5
20210514221933 48 206 0.0 0.0 0.00 0.00 0.00 72 1017.5
20210514221733 48 206 0.0 0.0 0.00 0.00 0.00 71 1017.5
20210514221528 48 206 0.0 0.0 0.00 0.00 0.00 71 1017.5
20210514221318 48 206 0.0 0.0 0.00 0.00 0.00 70 1017.5
20210514221108 48 206 0.0 0.0 0.00 0.00 0.00 71 1017.5
20210514220857 48 206 0.0 0.0 0.00 0.00 0.00 71 1017.4
20210514220657 48 206 0.0 0.0 0.00 0.00 0.00 71 1017.4
20210514220454 48 194 0.0 0.0 0.00 0.00 0.00 70 1017.4
20210514220253 49 194 0.0 0.0 0.00 0.00 0.00 69 1017.4
20210514220054 49 195 0.0 0.0 0.00 0.00 0.00 69 1017.4
20210514215845 49 195 0.0 0.0 0.00 0.00 0.00 68 1017.4
20210514215640 49 196 0.0 0.0 0.00 0.00 0.00 67 1017.4
20210514215435 49 196 0.0 0.0 0.00 0.00 0.00 67 1017.4
20210514215233 49 200 0.0 0.0 0.00 0.00 0.00 67 1017.4
20210514215032 48 209 0.0 0.0 0.00 0.00 0.00 69 1017.4
20210514214823 48 209 0.0 0.0 0.00 0.00 0.00 69 1017.4
20210514214616 48 209 0.0 0.0 0.00 0.00 0.00 68 1017.4
20210514214411 48 209 0.0 0.0 0.00 0.00 0.00 69 1017.4
20210514214210 48 241 0.0 1.0 0.00 0.00 0.00 68 1017.4
20210514214005 48 274 0.0 0.0 0.00 0.00 0.00 68 1017.1
20210514213755 48 274 0.0 0.0 0.00 0.00 0.00 68 1017.1
20210514213549 48 274 0.0 0.0 0.00 0.00 0.00 69 1017.1
20210514213347 48 273 0.0 0.0 0.00 0.00 0.00 70 1017.1
20210514213147 47 225 0.0 0.0 0.00 0.00 0.00 70 1017.1
20210514212945 47 224 0.0 0.0 0.00 0.00 0.00 70 1017.1
20210514212743 47 224 0.0 0.0 0.00 0.00 0.00 69 1017.1
20210514212536 47 229 0.0 0.0 0.00 0.00 0.00 70 1017.1
20210514212334 47 226 0.0 0.0 0.00 0.00 0.00 71 1017.1
20210514212125 47 219 0.0 0.0 0.00 0.00 0.00 72 1017.1
20210514211917 47 219 0.0 0.0 0.00 0.00 0.00 73 1017.1
20210514211717 47 237 0.0 0.0 0.00 0.00 0.00 73 1017.1
20210514211507 47 232 0.0 0.0 0.00 0.00 0.00 73 1017.1
20210514211256 47 240 0.0 0.0 0.00 0.00 0.00 72 1017.1
20210514211053 47 243 0.0 1.0 0.00 0.00 0.00 72 1017.1
20210514210852 47 269 0.0 0.0 0.00 0.00 0.00 72 1017.3
20210514210652 47 274 0.0 0.0 0.00 0.00 0.00 72 1017.3
20210514210450 46 210 0.0 0.0 0.00 0.00 0.00 73 1017.3
20210514210250 46 210 0.0 0.0 0.00 0.00 0.00 73 1017.3
20210514210041 46 209 0.0 0.0 0.00 0.00 0.00 72 1017.3
20210514205838 46 209 0.0 0.0 0.00 0.00 0.00 72 1017.3
20210514205631 46 209 0.0 0.0 0.00 0.00 0.00 72 1017.3
20210514205427 46 211 0.0 0.0 0.00 0.00 0.00 73 1017.1
20210514205218 46 200 0.0 0.0 0.00 0.00 0.00 72 1017.1
20210514205010 46 200 0.0 0.0 0.00 0.00 0.00 73 1017.1
20210514204803 46 204 0.0 2.0 0.00 0.00 0.00 73 1017.1
20210514204602 46 229 0.0 0.0 0.00 0.00 0.00 72 1017.1
20210514204356 46 214 0.0 0.0 0.00 0.00 0.00 73 1017.1
20210514204155 46 229 0.0 0.0 0.00 0.00 0.00 72 1017.1
20210514203950 46 250 0.0 0.0 0.00 0.00 0.00 73 1017.1
20210514203743 46 216 0.0 0.0 0.00 0.00 0.00 72 1017.1
20210514203544 46 202 0.0 0.0 0.00 0.00 0.00 72 1017.1
20210514203343 46 174 0.0 0.0 0.00 0.00 0.00 72 1017.1
20210514203132 46 134 0.0 0.0 0.00 0.00 0.00 72 1017.1
20210514202927 46 152 0.0 0.0 0.00 0.00 0.00 73 1017.1
20210514202721 46 154 0.0 0.0 0.00 0.00 0.00 73 1017.1
20210514202513 46 154 0.0 0.0 0.00 0.00 0.00 74 1017.1
20210514202312 46 148 0.0 0.0 0.00 0.00 0.00 74 1017.1
20210514202109 46 141 0.0 1.0 0.00 0.00 0.00 75 1017.1
20210514201859 46 164 0.0 0.0 0.00 0.00 0.00 75 1017.1
20210514201649 46 188 0.0 0.0 0.00 0.00 0.00 75 1017.1
20210514201440 46 112 0.0 0.0 0.00 0.00 0.00 74 1017.1
20210514201238 46 182 0.0 0.0 0.00 0.00 0.00 74 1017.1
20210514201030 46 160 0.0 0.0 0.00 0.00 0.00 74 1017.1
20210514200824 46 166 0.0 0.0 0.00 0.00 0.00 75 1017.0
20210514200620 46 172 0.0 0.0 0.00 0.00 0.00 75 1017.0
20210514200418 46 153 0.0 0.0 0.00 0.00 0.00 75 1017.0
20210514200207 46 148 0.0 0.0 0.00 0.00 0.00 74 1017.0
20210514200001 46 172 0.0 0.0 0.00 0.00 0.00 75 1017.0
20210514195751 46 159 0.0 0.0 0.00 0.00 0.00 74 1017.0
20210514195547 46 170 0.0 0.0 0.00 0.00 0.00 74 1017.0
20210514195347 46 184 0.0 0.0 0.00 0.00 0.00 74 1016.8
20210514195141 46 193 0.0 0.0 0.00 0.00 0.00 74 1016.8
20210514194941 46 167 0.0 3.0 0.00 0.00 0.00 74 1016.8
20210514194730 46 162 0.0 0.0 0.00 0.00 0.00 74 1016.8
20210514194530 46 143 0.0 0.0 0.00 0.00 0.00 73 1016.8
20210514194322 46 141 0.0 0.0 0.00 0.00 0.00 74 1016.8
20210514194118 46 129 0.0 0.0 0.00 0.00 0.00 73 1016.8
20210514193908 46 111 0.0 4.0 0.00 0.00 0.00 73 1016.8
20210514193708 46 142 0.0 0.0 0.00 0.00 0.00 72 1016.8
20210514193505 46 179 0.0 6.0 0.00 0.00 0.00 72 1016.8
20210514193304 46 173 0.0 0.0 0.00 0.00 0.00 72 1016.8
20210514193101 46 173 0.0 0.0 0.00 0.00 0.00 72 1016.8
20210514192859 46 176 0.0 0.0 0.00 0.00 0.00 72 1016.8
20210514192657 46 165 0.0 0.0 0.00 0.00 0.00 72 1016.8
20210514192448 46 140 0.0 0.0 0.00 0.00 0.00 72 1016.6
20210514192249 46 160 0.0 0.0 0.00 0.00 0.00 72 1016.6
20210514192047 46 171 0.0 5.0 0.00 0.00 0.00 72 1016.6
20210514191847 46 130 0.0 0.0 0.00 0.00 0.00 71 1016.6
20210514191640 46 169 0.0 0.0 0.00 0.00 0.00 71 1016.6
20210514191437 46 197 0.0 6.0 0.00 0.00 0.00 71 1016.6
20210514191230 46 151 0.0 6.0 0.00 0.00 0.00 71 1016.6
20210514191031 46 176 0.0 0.0 0.00 0.00 0.00 72 1016.6
20210514190823 46 137 0.0 7.0 0.00 0.00 0.00 70 1016.6
20210514190622 47 146 0.0 7.0 0.00 0.00 0.00 69 1016.6
20210514190418 47 168 0.0 0.0 0.00 0.00 0.00 70 1016.6
20210514190214 47 150 0.0 0.0 0.00 0.00 0.00 69 1016.6
20210514190012 47 193 0.0 6.0 0.00 0.00 0.00 69 1016.6
20210514185807 47 174 0.0 6.0 0.00 0.00 0.00 70 1016.6
20210514185606 47 203 0.0 0.0 0.00 0.00 0.00 70 1016.6
20210514185406 47 179 0.0 8.0 0.00 0.00 0.00 71 1016.6
20210514185158 47 178 0.0 6.0 0.00 0.00 0.00 71 1016.6
20210514184952 47 136 0.0 5.0 0.00 0.00 0.00 70 1016.6
20210514184742 47 158 0.0 5.0 0.00 0.00 0.00 72 1016.6
20210514184538 47 149 0.0 8.0 0.00 0.00 0.00 72 1016.6
20210514184332 47 150 0.0 8.0 0.00 0.00 0.00 71 1016.6
20210514184131 47 161 0.0 5.0 0.00 0.00 0.00 71 1016.6
20210514183928 47 160 0.0 5.0 0.00 0.00 0.00 72 1016.6
20210514183722 47 159 0.0 5.0 0.00 0.00 0.00 70 1016.6
20210514183522 47 169 0.0 5.0 0.00 0.00 0.00 70 1016.6
20210514183320 47 181 0.0 2.0 0.00 0.00 0.00 71 1016.6
20210514183119 47 173 0.0 0.0 0.00 0.00 0.00 72 1016.6
20210514182913 47 158 1.0 11.0 0.00 0.00 0.00 71 1016.6
20210514182710 46 186 1.0 11.0 0.00 0.00 0.00 73 1016.6
20210514182506 46 165 1.0 11.0 0.00 0.00 0.00 71 1016.6
20210514182259 46 184 1.0 11.0 0.00 0.00 0.00 70 1016.6
20210514182055 47 170 1.0 10.0 0.00 0.00 0.00 71 1016.6
20210514181847 47 174 0.0 10.0 0.00 0.00 0.00 70 1016.6
20210514181642 47 193 0.0 10.0 0.00 0.00 0.00 71 1016.6
20210514181434 47 184 0.0 10.0 0.00 0.00 0.00 71 1016.6
20210514181229 47 182 0.0 10.0 0.00 0.00 0.00 71 1016.6
20210514181026 46 193 0.0 10.0 0.00 0.00 0.00 71 1016.6
20210514180819 47 170 0.0 11.0 0.00 0.00 0.00 70 1016.6
20210514180610 47 165 0.0 11.0 0.00 0.00 0.00 69 1016.6
20210514180359 47 181 1.0 11.0 0.00 0.00 0.00 69 1016.6
20210514180155 47 195 0.0 11.0 0.00 0.00 0.00 71 1016.6
20210514175948 47 186 1.0 11.0 0.00 0.00 0.00 70 1016.6
20210514175742 47 174 1.0 11.0 0.00 0.00 0.00 68 1016.6
20210514175533 47 178 1.0 11.0 0.00 0.00 0.00 70 1016.6
20210514175325 47 160 0.0 11.0 0.00 0.00 0.00 69 1016.6
20210514175115 47 175 0.0 11.0 0.00 0.00 0.00 69 1016.6
20210514174913 47 177 0.0 11.0 0.00 0.00 0.00 69 1016.6
20210514174708 47 162 0.0 11.0 0.00 0.00 0.00 71 1016.6
20210514174505 47 193 1.0 11.0 0.00 0.00 0.00 70 1016.6
20210514174305 47 185 0.0 11.0 0.00 0.00 0.00 68 1016.6
20210514174104 47 173 0.0 11.0 0.00 0.00 0.00 69 1016.6
20210514173900 47 171 0.0 11.0 0.00 0.00 0.00 70 1016.6
20210514173700 47 196 0.0 8.0 0.00 0.00 0.00 69 1016.6
20210514173459 47 184 0.0 3.0 0.00 0.00 0.00 70 1016.6
20210514173254 47 171 0.0 0.0 0.00 0.00 0.00 71 1016.6
20210514173052 47 211 0.0 8.0 0.00 0.00 0.00 71 1016.6
20210514172851 47 178 0.0 9.0 0.00 0.00 0.00 70 1016.6
20210514172642 46 155 0.0 9.0 0.00 0.00 0.00 71 1016.6
20210514172434 46 179 0.0 9.0 0.00 0.00 0.00 71 1016.4
20210514172233 46 214 0.0 9.0 0.00 0.00 0.00 71 1016.4
20210514172028 47 198 0.0 9.0 0.00 0.00 0.00 71 1016.4
20210514171825 47 181 0.0 9.0 0.00 0.00 0.00 70 1016.4
20210514171623 47 169 0.0 9.0 0.00 0.00 0.00 70 1016.4
20210514171423 47 176 0.0 9.0 0.00 0.00 0.00 69 1016.4
20210514171213 47 167 0.0 9.0 0.00 0.00 0.00 69 1016.4
20210514171011 47 178 0.0 9.0 0.00 0.00 0.00 69 1016.3
20210514170810 47 191 0.0 8.0 0.00 0.00 0.00 69 1016.3
20210514170608 47 190 0.0 8.0 0.00 0.00 0.00 69 1016.3
20210514170400 47 156 0.0 0.0 0.00 0.00 0.00 69 1016.3
20210514170200 47 169 0.0 0.0 0.00 0.00 0.00 68 1016.3
20210514165950 47 156 0.0 11.0 0.00 0.00 0.00 69 1016.3
20210514165749 47 165 0.0 11.0 0.00 0.00 0.00 67 1016.3
20210514165546 47 158 0.0 11.0 0.00 0.00 0.00 68 1016.3
20210514165345 47 147 0.0 11.0 0.00 0.00 0.00 69 1016.0
20210514165138 47 178 0.0 11.0 0.00 0.00 0.00 70 1016.0
20210514164938 47 180 0.0 3.0 0.00 0.00 0.00 70 1016.0
20210514164739 47 169 0.0 2.0 0.00 0.00 0.00 71 1016.0
20210514164539 47 186 0.0 2.0 0.00 0.00 0.00 69 1016.0
20210514164329 48 169 0.0 2.0 0.00 0.00 0.00 69 1016.0
20210514164130 47 173 0.0 0.0 0.00 0.00 0.00 70 1016.0
20210514163920 48 182 0.0 6.0 0.00 0.00 0.00 70 1016.2
20210514163711 47 180 0.0 6.0 0.00 0.00 0.00 70 1016.2
20210514163507 47 188 0.0 6.0 0.00 0.00 0.00 69 1016.2
20210514163300 48 204 0.0 4.0 0.00 0.00 0.00 70 1016.2
20210514163059 48 201 0.0 4.0 0.00 0.00 0.00 70 1016.2
20210514162856 48 191 0.0 4.0 0.00 0.00 0.00 71 1016.2
20210514162650 47 179 0.0 0.0 0.00 0.00 0.00 73 1016.2
20210514162449 47 194 0.0 2.0 0.00 0.00 0.00 73 1016.0
20210514162243 47 172 0.0 2.0 0.00 0.00 0.00 72 1016.0
20210514162035 46 210 0.0 0.0 0.00 0.00 0.00 73 1016.0
20210514161831 46 166 0.0 0.0 0.00 0.00 0.00 73 1016.0
20210514161626 46 141 0.0 0.0 0.00 0.00 0.00 73 1016.0
20210514161426 46 148 0.0 3.0 0.00 0.00 0.00 73 1016.0
20210514161222 46 140 0.0 0.0 0.00 0.00 0.00 73 1016.0
20210514161023 46 177 0.0 0.0 0.00 0.00 0.00 72 1016.0
20210514160813 46 180 0.0 0.0 0.00 0.00 0.00 72 1016.0
20210514160612 46 148 0.0 0.0 0.00 0.00 0.00 72 1016.0
20210514160407 47 173 0.0 8.0 0.00 0.00 0.00 71 1016.0
20210514160203 47 185 0.0 8.0 0.00 0.00 0.00 71 1016.0
20210514155954 48 161 0.0 3.0 0.00 0.00 0.00 70 1016.0
20210514155745 48 165 0.0 3.0 0.00 0.00 0.00 70 1016.0
20210514155535 48 150 0.0 1.0 0.00 0.00 0.00 70 1016.0
20210514155325 49 164 0.0 8.0 0.00 0.00 0.00 70 1015.7
20210514155123 49 136 0.0 8.0 0.00 0.00 0.00 67 1015.7
20210514154916 49 170 0.0 8.0 0.00 0.00 0.00 67 1015.7
20210514154714 50 150 0.0 8.0 0.00 0.00 0.00 67 1015.7
20210514154507 50 153 0.0 1.0 0.00 0.00 0.00 68 1015.7
20210514154304 49 132 0.0 0.0 0.00 0.00 0.00 69 1015.7
20210514154101 49 188 0.0 5.0 0.00 0.00 0.00 68 1015.7
20210514153859 49 155 0.0 0.0 0.00 0.00 0.00 68 1015.7
20210514153653 49 172 0.0 0.0 0.00 0.00 0.00 68 1015.7
20210514153443 49 173 0.0 0.0 0.00 0.00 0.00 68 1015.7
20210514153241 48 135 0.0 0.0 0.00 0.00 0.00 67 1015.7
20210514153036 48 94 0.0 8.0 0.00 0.00 0.00 67 1015.7
20210514152837 48 110 0.0 8.0 0.00 0.00 0.00 68 1015.7
20210514152631 48 140 0.0 8.0 0.00 0.00 0.00 69 1015.7
20210514152424 48 141 0.0 1.0 0.00 0.00 0.00 69 1015.8
20210514152223 48 164 0.0 0.0 0.00 0.00 0.00 71 1015.8
20210514152020 48 135 0.0 13.0 0.00 0.00 0.00 70 1015.8
20210514151819 48 141 0.0 6.0 0.00 0.00 0.00 70 1015.8
20210514151617 48 143 0.0 6.0 0.00 0.00 0.00 70 1015.8
20210514151410 48 129 0.0 6.0 0.00 0.00 0.00 72 1015.8
20210514151201 47 136 0.0 6.0 0.00 0.00 0.00 73 1015.8
20210514150959 47 103 0.0 5.0 0.00 0.00 0.00 74 1015.7
20210514150756 47 143 0.0 0.0 0.00 0.00 0.00 72 1015.7
20210514150552 47 124 0.0 1.0 0.00 0.00 0.00 72 1015.7
20210514150352 47 114 0.0 0.0 0.00 0.00 0.00 74 1015.7
20210514150151 47 139 0.0 9.0 0.00 0.00 0.00 73 1015.7
20210514145948 47 123 0.0 9.0 0.00 0.00 0.00 73 1015.7
20210514145739 47 86 0.0 2.0 0.00 0.00 0.00 72 1015.7
20210514145539 47 98 0.0 4.0 0.00 0.00 0.00 72 1015.7
20210514145341 48 129 0.0 2.0 0.00 0.00 0.00 71 1015.6
20210514145137 48 129 0.0 0.0 0.00 0.00 0.00 72 1015.6
20210514144928 48 110 0.0 0.0 0.00 0.00 0.00 73 1015.6
20210514144723 48 73 0.0 1.0 0.00 0.00 0.00 72 1015.6
20210514144518 48 102 0.0 5.0 0.00 0.00 0.00 70 1015.6
20210514144309 48 126 0.0 5.0 0.00 0.00 0.00 67 1015.6
20210514144109 49 100 0.0 3.0 0.00 0.00 0.00 68 1015.6
20210514143901 49 105 0.0 3.0 0.00 0.00 0.00 68 1015.5
20210514143701 49 115 0.0 3.0 0.00 0.00 0.00 68 1015.5
20210514143459 49 136 0.0 0.0 0.00 0.00 0.00 69 1015.5
20210514143253 49 136 0.0 13.0 0.00 0.00 0.00 68 1015.5
20210514143054 49 150 0.0 13.0 0.00 0.00 0.00 67 1015.5
20210514142843 49 139 0.0 13.0 0.00 0.00 0.00 67 1015.5
20210514142641 49 113 0.0 12.0 0.00 0.00 0.00 67 1015.5
20210514142440 49 116 1.0 12.0 0.00 0.00 0.00 68 1015.4
20210514142235 49 94 1.0 12.0 0.00 0.00 0.00 67 1015.4
20210514142037 49 86 2.0 12.0 0.00 0.00 0.00 67 1015.4
20210514141827 49 114 2.0 12.0 0.00 0.00 0.00 68 1015.4
20210514141625 49 105 2.0 11.0 0.00 0.00 0.00 68 1015.4
20210514141416 49 118 1.0 11.0 0.00 0.00 0.00 69 1015.4
20210514141214 49 117 1.0 11.0 0.00 0.00 0.00 68 1015.4
20210514141013 48 131 1.0 11.0 0.00 0.00 0.00 69 1015.4
20210514140814 48 105 1.0 11.0 0.00 0.00 0.00 68 1015.4
20210514140612 49 122 0.0 10.0 0.00 0.00 0.00 68 1015.4
20210514140404 49 146 0.0 10.0 0.00 0.00 0.00 69 1015.4
20210514140200 49 117 0.0 10.0 0.00 0.00 0.00 68 1015.4
20210514135956 49 122 0.0 10.0 0.00 0.00 0.00 68 1015.4
20210514135752 49 136 0.0 10.0 0.00 0.00 0.00 66 1015.4
20210514135543 49 127 0.0 9.0 0.00 0.00 0.00 69 1015.4
20210514135333 49 122 0.0 3.0 0.00 0.00 0.00 69 1015.3
20210514135132 49 141 0.0 10.0 0.00 0.00 0.00 68 1015.3
20210514134927 49 141 0.0 10.0 0.00 0.00 0.00 68 1015.3
20210514134718 49 154 0.0 10.0 0.00 0.00 0.00 66 1015.3
20210514134510 49 120 0.0 5.0 0.00 0.00 0.00 65 1015.3
20210514134307 49 127 0.0 3.0 0.00 0.00 0.00 67 1015.3
20210514134059 49 135 0.0 9.0 0.00 0.00 0.00 68 1015.3
20210514133859 49 145 1.0 11.0 0.00 0.00 0.00 67 1015.4
20210514133654 48 155 1.0 11.0 0.00 0.00 0.00 69 1015.4
20210514133445 48 179 1.0 11.0 0.00 0.00 0.00 68 1015.4
20210514133244 48 115 2.0 11.0 0.00 0.00 0.00 69 1015.4
20210514133038 48 136 2.0 11.0 0.00 0.00 0.00 68 1015.4
20210514132838 48 143 1.0 11.0 0.00 0.00 0.00 68 1015.4
20210514132632 48 129 2.0 11.0 0.00 0.00 0.00 68 1015.4
20210514132422 48 136 1.0 11.0 0.00 0.00 0.00 68 1015.3
20210514132221 48 131 1.0 11.0 0.00 0.00 0.00 68 1015.3
20210514132022 48 131 1.0 11.0 0.00 0.00 0.00 70 1015.3
20210514131814 48 124 1.0 9.0 0.00 0.00 0.00 70 1015.3
20210514131609 48 156 0.0 9.0 0.00 0.00 0.00 68 1015.3
20210514131405 48 167 0.0 9.0 0.00 0.00 0.00 68 1015.3
20210514131204 49 178 0.0 7.0 0.00 0.00 0.00 68 1015.3
20210514131004 49 143 0.0 4.0 0.00 0.00 0.00 66 1015.1
20210514130805 49 154 0.0 4.0 0.00 0.00 0.00 66 1015.1
20210514130604 49 162 0.0 4.0 0.00 0.00 0.00 65 1015.1
20210514130356 49 205 0.0 4.0 0.00 0.00 0.00 65 1015.1
20210514130153 49 149 0.0 4.0 0.00 0.00 0.00 63 1015.1
20210514125953 50 143 0.0 3.0 0.00 0.00 0.00 63 1015.1
20210514125749 50 131 0.0 2.0 0.00 0.00 0.00 65 1015.1
20210514125546 50 129 0.0 0.0 0.00 0.00 0.00 63 1015.1
20210514125345 50 152 0.0 1.0 0.00 0.00 0.00 62 1015.1
20210514125137 51 134 0.0 1.0 0.00 0.00 0.00 60 1015.1
20210514124928 52 144 0.0 0.0 0.00 0.00 0.00 59 1015.1
20210514124720 53 137 0.0 0.0 0.00 0.00 0.00 57 1015.1
20210514124519 53 132 0.0 0.0 0.00 0.00 0.00 56 1015.1
20210514124319 53 184 0.0 7.0 0.00 0.00 0.00 55 1015.1
20210514124110 53 17 0.0 5.0 0.00 0.00 0.00 52 1015.1
20210514123902 52 37 1.0 5.0 0.00 0.00 0.00 52 1015.0
20210514123656 52 84 1.0 2.0 0.00 0.00 0.00 53 1015.0
20210514123449 52 39 1.0 0.0 0.00 0.00 0.00 53 1015.0
20210514123248 52 359 1.0 7.0 0.00 0.00 0.00 53 1015.0
20210514123045 52 352 1.0 6.0 0.00 0.00 0.00 54 1015.0
20210514122846 52 349 1.0 4.0 0.00 0.00 0.00 54 1015.0
20210514122635 52 18 1.0 11.0 0.00 0.00 0.00 54 1015.0
20210514122431 52 0 2.0 11.0 0.00 0.00 0.00 54 1014.9
20210514122229 51 1 1.0 11.0 0.00 0.00 0.00 55 1014.9
20210514122028 52 34 1.0 11.0 0.00 0.00 0.00 54 1014.9
20210514121826 52 58 1.0 11.0 0.00 0.00 0.00 55 1014.9
20210514121623 51 335 0.0 11.0 0.00 0.00 0.00 56 1014.9
20210514121416 51 341 0.0 5.0 0.00 0.00 0.00 55 1014.9
20210514121213 51 340 0.0 11.0 0.00 0.00 0.00 55 1014.9
20210514121009 51 10 0.0 11.0 0.00 0.00 0.00 56 1014.9
20210514120759 51 300 0.0 11.0 0.00 0.00 0.00 56 1014.9
20210514120554 51 353 0.0 11.0 0.00 0.00 0.00 56 1014.9
20210514120355 51 334 0.0 11.0 0.00 0.00 0.00 56 1014.9
20210514120145 51 352 0.0 11.0 0.00 0.00 0.00 56 1014.9
20210514115944 51 357 0.0 4.0 0.00 0.00 0.00 57 1014.9
20210514115737 51 358 0.0 8.0 0.00 0.00 0.00 57 1014.9
20210514115535 51 26 0.0 8.0 0.00 0.00 0.00 57 1014.9
20210514115332 51 35 0.0 0.0 0.00 0.00 0.00 57 1014.9
20210514115132 51 359 0.0 6.0 0.00 0.00 0.00 57 1014.9
20210514114924 51 25 0.0 0.0 0.00 0.00 0.00 57 1014.9
20210514114724 51 8 0.0 0.0 0.00 0.00 0.00 59 1014.9
20210514114519 51 56 0.0 0.0 0.00 0.00 0.00 58 1014.9
20210514114310 50 46 0.0 0.0 0.00 0.00 0.00 59 1014.9
20210514114105 50 27 0.0 0.0 0.00 0.00 0.00 59 1014.9
20210514113901 50 34 0.0 0.0 0.00 0.00 0.00 61 1014.8
20210514113659 50 359 0.0 0.0 0.00 0.00 0.00 61 1014.8
20210514113454 49 55 0.0 0.0 0.00 0.00 0.00 61 1014.8
20210514113246 49 36 0.0 0.0 0.00 0.00 0.00 61 1014.8
20210514113047 49 334 0.0 0.0 0.00 0.00 0.00 62 1014.8
20210514112837 49 41 0.0 0.0 0.00 0.00 0.00 62 1014.8
20210514112631 49 5 0.0 4.0 0.00 0.00 0.00 62 1014.8
20210514112426 49 56 0.0 0.0 0.00 0.00 0.00 63 1014.7
20210514112220 48 2 0.0 10.0 0.00 0.00 0.00 63 1014.7
20210514112015 48 32 0.0 1.0 0.00 0.00 0.00 64 1014.7